When you browse on this site, cookies collect data to enhance your experience and personalize the content and advertising you see.
Visit our Privacy Policy to learn more. By continuing to use the site, you agree to this use of cookies and data.
  • In Portugal
  • List of Countries
  • For 7 days
  • Water Temperature
  • Satellite Maps
  • Weather Map
  • Weather Widgets
  • user-avatar
    Login

    Hourly Weather Kobyle

    Today, 22 February, Friday

    Time Temperature Precipitation Wind Pressure Humidity
    00:00 +4°C° 0.8 mm 4 mps 742 mmHg 89%
    01:00 +4°C° 0.8 mm 4 mps 742 mmHg 90%
    02:00 +4°C° 0.9 mm 4 mps 742 mmHg 92%
    03:00 +4°C° 0.9 mm 4 mps 742 mmHg 93%
    04:00 +4°C° 0.9 mm 3 mps 742 mmHg 94%
    05:00 +1°C° 0.9 mm 5 mps 742 mmHg 93%
    06:00 -2°C° 0.9 mm 6 mps 743 mmHg 91%
    07:00 -5°C° 0.9 mm 8 mps 744 mmHg 90%
    08:00 -5°C° 0.3 mm 8 mps 745 mmHg 84%
    09:00 -4°C° 0.3 mm 7 mps 747 mmHg 78%
    10:00 -4°C° 0.3 mm 7 mps 748 mmHg 72%
    11:00 -4°C° 0 mm 7 mps 749 mmHg 67%
    12:00 -4°C° 0 mm 7 mps 750 mmHg 62%
    13:00 -4°C° 0 mm 7 mps 751 mmHg 57%
    14:00 -6°C° 0 mm 7 mps 751 mmHg 57%
    15:00 -6°C° 0 mm 7 mps 752 mmHg 58%
    16:00 -7°C° 0 mm 7 mps 752 mmHg 58%
    17:00 -6°C° 0 mm 6 mps 753 mmHg 58%
    18:00 -8°C° 0 mm 6 mps 754 mmHg 59%
    19:00 -7°C° 0 mm 5 mps 755 mmHg 59%
    20:00 -7°C° 0 mm 5 mps 755 mmHg 58%
    21:00 -7°C° 0 mm 5 mps 756 mmHg 56%
    22:00 -7°C° 0 mm 5 mps 756 mmHg 55%
    23:00 -7°C° 0 mm 5 mps 757 mmHg 55%

    Tomorrow, 23 February, Saturday

    Time Temperature Precipitation Wind Pressure Humidity
    00:00 -7°C° 0 mm 5 mps 757 mmHg 55%
    01:00 -7°C° 0 mm 5 mps 757 mmHg 55%
    02:00 -7°C° 0 mm 5 mps 757 mmHg 56%
    03:00 -8°C° 0 mm 4 mps 757 mmHg 57%
    04:00 -8°C° 0 mm 4 mps 757 mmHg 58%
    05:00 -8°C° 0 mm 4 mps 757 mmHg 59%
    06:00 -8°C° 0 mm 4 mps 758 mmHg 60%
    07:00 -8°C° 0 mm 4 mps 758 mmHg 62%
    08:00 -7°C° 0 mm 4 mps 758 mmHg 59%
    09:00 -7°C° 0 mm 4 mps 759 mmHg 55%
    10:00 -6°C° 0 mm 5 mps 759 mmHg 52%
    11:00 -5°C° 0 mm 4 mps 759 mmHg 49%
    12:00 -4°C° 0 mm 4 mps 759 mmHg 46%
    13:00 -3°C° 0 mm 4 mps 758 mmHg 43%
    14:00 -3°C° 0 mm 4 mps 758 mmHg 43%
    15:00 -4°C° 0 mm 3 mps 758 mmHg 43%
    16:00 -4°C° 0 mm 3 mps 758 mmHg 43%
    17:00 -3°C° 0 mm 2 mps 758 mmHg 47%
    18:00 -4°C° 0 mm 2 mps 758 mmHg 51%
    19:00 -2°C° 0 mm 1 mps 758 mmHg 55%
    20:00 -3°C° 0 mm 1 mps 758 mmHg 55%
    21:00 -4°C° 0 mm 0 mps 758 mmHg 55%
    22:00 -4°C° 0 mm 0 mps 758 mmHg 56%
    23:00 -4°C° 0 mm 0 mps 758 mmHg 55%

    Day after tomorrow, 24 February, Sunday

    Time Temperature Precipitation Wind Pressure Humidity
    00:00 -4°C° 0 mm 0 mps 758 mmHg 55%
    01:00 -4°C° 0 mm 0 mps 758 mmHg 55%
    02:00 -3°C° 0 mm 0 mps 758 mmHg 54%
    03:00 -3°C° 0 mm 0 mps 757 mmHg 52%
    04:00 -3°C° 0 mm 0 mps 757 mmHg 50%
    05:00 -2°C° 0 mm 1 mps 757 mmHg 50%
    06:00 -2°C° 0 mm 1 mps 757 mmHg 50%
    07:00 -2°C° 0 mm 1 mps 757 mmHg 50%
    08:00 -1°C° 0 mm 1 mps 757 mmHg 44%
    09:00 0°C° 0 mm 1 mps 757 mmHg 39%
    10:00 -1°C° 0 mm 2 mps 757 mmHg 33%
    11:00 +1°C° 0 mm 2 mps 756 mmHg 34%
    12:00 +1°C° 0 mm 2 mps 756 mmHg 36%
    13:00 +2°C° 0 mm 2 mps 756 mmHg 37%
    14:00 +2°C° 0 mm 2 mps 756 mmHg 42%
    15:00 +2°C° 0 mm 2 mps 756 mmHg 46%
    16:00 +2°C° 0 mm 2 mps 756 mmHg 51%
    17:00 +1°C° 0 mm 2 mps 756 mmHg 54%
    18:00 -1°C° 0 mm 2 mps 756 mmHg 57%
    19:00 -1°C° 0 mm 2 mps 756 mmHg 61%
    20:00 -1°C° 0 mm 2 mps 756 mmHg 60%
    21:00 -2°C° 0 mm 2 mps 756 mmHg 60%
    22:00 -2°C° 0 mm 2 mps 756 mmHg 59%
    23:00 -2°C° 0 mm 2 mps 756 mmHg 58%

    25 February, Monday

    Time Temperature Precipitation Wind Pressure Humidity
    00:00 -2°C° 0 mm 2 mps 756 mmHg 57%
    01:00 -1°C° 0 mm 2 mps 756 mmHg 56%
    02:00 -1°C° 0 mm 2 mps 756 mmHg 56%
    03:00 -1°C° 0 mm 3 mps 755 mmHg 56%
    04:00 -1°C° 0 mm 3 mps 755 mmHg 56%
    05:00 -1°C° 0 mm 3 mps 755 mmHg 57%
    06:00 -1°C° 0 mm 3 mps 755 mmHg 59%
    07:00 -1°C° 0 mm 3 mps 755 mmHg 60%
    08:00 -1°C° 0 mm 4 mps 755 mmHg 59%
    09:00 +1°C° 0 mm 4 mps 755 mmHg 58%
    10:00 +2°C° 0 mm 5 mps 755 mmHg 56%
    11:00 +3°C° 0 mm 5 mps 754 mmHg 58%
    12:00 +5°C° 0 mm 5 mps 754 mmHg 60%
    13:00 +5°C° 0 mm 5 mps 754 mmHg 62%
    14:00 +5°C° 0 mm 4 mps 754 mmHg 67%
    15:00 +4°C° 0 mm 4 mps 753 mmHg 73%
    16:00 +4°C° 0 mm 3 mps 753 mmHg 78%
    17:00 +3°C° 0 mm 3 mps 754 mmHg 83%
    18:00 +2°C° 0 mm 3 mps 754 mmHg 88%
    19:00 +2°C° 0 mm 2 mps 754 mmHg 92%
    20:00 +1°C° 0 mm 2 mps 754 mmHg 93%
    21:00 +1°C° 0 mm 2 mps 754 mmHg 94%
    22:00 -1°C° 0 mm 2 mps 753 mmHg 96%
    23:00 -1°C° 0 mm 2 mps 753 mmHg 95%

    26 February, Tuesday

    Time Temperature Precipitation Wind Pressure Humidity
    00:00 -1°C° 0 mm 2 mps 753 mmHg 95%
    01:00 -1°C° 0 mm 2 mps 752 mmHg 95%
    02:00 -1°C° 0 mm 3 mps 752 mmHg 94%
    03:00 -1°C° 0 mm 3 mps 751 mmHg 93%
    04:00 0°C° 0 mm 3 mps 751 mmHg 92%
    05:00 -1°C° 0 mm 4 mps 750 mmHg 90%
    06:00 -1°C° 0 mm 4 mps 750 mmHg 88%
    07:00 0°C° 0 mm 5 mps 749 mmHg 86%
    08:00 +1°C° 0 mm 6 mps 749 mmHg 81%
    09:00 +2°C° 0 mm 7 mps 748 mmHg 75%
    10:00 +4°C° 0 mm 8 mps 748 mmHg 70%
    11:00 +3°C° 0 mm 7 mps 748 mmHg 72%
    12:00 +3°C° 0 mm 7 mps 747 mmHg 75%
    13:00 +3°C° 0 mm 7 mps 747 mmHg 77%
    14:00 +3°C° 0 mm 7 mps 747 mmHg 77%
    15:00 +4°C° 0 mm 6 mps 747 mmHg 78%
    16:00 +4°C° 0 mm 6 mps 747 mmHg 78%
    17:00 +3°C° 0 mm 6 mps 747 mmHg 81%
    18:00 +2°C° 0 mm 5 mps 747 mmHg 85%
    19:00 +2°C° 0 mm 5 mps 747 mmHg 88%
    20:00 +1°C° 0 mm 5 mps 747 mmHg 88%
    21:00 +1°C° 0 mm 5 mps 747 mmHg 87%
    22:00 +1°C° 0 mm 5 mps 747 mmHg 87%
    23:00 0°C° 0 mm 5 mps 747 mmHg 85%

    27 February, Wednesday

    Time Temperature Precipitation Wind Pressure Humidity
    00:00 0°C° 0 mm 5 mps 747 mmHg 84%
    01:00 -1°C° 0 mm 4 mps 747 mmHg 82%
    02:00 -1°C° 0 mm 4 mps 747 mmHg 84%
    03:00 -1°C° 0 mm 4 mps 747 mmHg 85%
    04:00 -2°C° 0 mm 4 mps 747 mmHg 87%
    05:00 -2°C° 0 mm 4 mps 747 mmHg 87%
    06:00 -2°C° 0 mm 4 mps 747 mmHg 86%
    07:00 -2°C° 0 mm 4 mps 747 mmHg 86%
    08:00 -1°C° 0 mm 4 mps 747 mmHg 80%
    09:00 +1°C° 0 mm 5 mps 747 mmHg 75%
    10:00 +2°C° 0 mm 5 mps 747 mmHg 69%
    11:00 +3°C° 0 mm 5 mps 747 mmHg 64%
    12:00 +5°C° 0 mm 5 mps 747 mmHg 60%
    13:00 +6°C° 0 mm 5 mps 746 mmHg 55%
    14:00 +6°C° 0 mm 5 mps 746 mmHg 55%
    15:00 +6°C° 0 mm 4 mps 745 mmHg 55%
    16:00 +6°C° 0 mm 4 mps 745 mmHg 55%
    17:00 +5°C° 0 mm 3 mps 745 mmHg 60%
    18:00 +4°C° 0 mm 3 mps 744 mmHg 64%
    19:00 +3°C° 0 mm 3 mps 744 mmHg 69%
    20:00 +3°C° 0 mm 3 mps 743 mmHg 66%
    21:00 +2°C° 0 mm 3 mps 743 mmHg 64%
    22:00 +2°C° 0 mm 3 mps 742 mmHg 61%
    23:00 +3°C° 0 mm 4 mps 742 mmHg 59%
    Show more